{"data":{"norad_id":42831,"intl_designator":"2017-042G","name":"FLYING LAPTOP","alt_names":[],"object_type":"PAYLOAD","status":"ACTIVE","operator":null,"country":"GER","launch_date":"2017-07-14","launch_site_code":"TYMSC","launch_vehicle":null,"mission":null,"orbit_class":"UNKNOWN","rcs_meters":null,"size_class":null,"mass_kg":null,"dimensions":null,"purposes":["science","tech_demo"],"wikipedia_slug":null,"has_3d_model":false,"image_url":null,"decayed_at":null,"tle_current":{"epoch":"2026-09-20T05:21:15.216192Z","epoch_age_seconds":38386,"freshness":"FRESH","line1":"1 42831U 17042G   26263.22309278  .00001272  00000+0  10225-3 0  9998","line2":"2 42831  97.5017  55.3651 0017149 154.6277 205.5794 15.01608668500714","mean_motion":15.01608668,"eccentricity":0.0017149,"inclination_deg":97.5017,"raan_deg":55.3651,"arg_perigee_deg":154.6277,"mean_anomaly_deg":205.5794,"bstar":0.00010225,"rev_number":50071,"period_min":95.897155543058,"perigee_km":550.03380328954,"apogee_km":573.8368633784,"semimajor_km":6940.072333334,"source":"CELESTRAK","updated_at":"2026-09-20T09:00:47.585054Z"}}}